{"data":{"norad_id":57116,"intl_designator":"2023-090R","name":"STARLINK-6129","alt_names":[],"object_type":"PAYLOAD","status":"ACTIVE","operator":null,"country":"US","launch_date":"2023-06-23","launch_site_code":"AFETR","launch_vehicle":null,"mission":null,"orbit_class":"UNKNOWN","rcs_meters":null,"size_class":null,"mass_kg":null,"dimensions":null,"purposes":["comms"],"wikipedia_slug":null,"has_3d_model":false,"image_url":null,"decayed_at":null,"tle_current":{"epoch":"2026-05-24T21:49:59.007072Z","epoch_age_seconds":79022,"freshness":"FRESH","line1":"1 57116U 23090R   26144.90971073 -.00000026  00000+0  87387-5 0  9993","line2":"2 57116  43.0039 210.7398 0001959 289.4892  70.5747 15.26741124161996","mean_motion":15.26741124,"eccentricity":0.0001959,"inclination_deg":43.0039,"raan_deg":210.7398,"arg_perigee_deg":289.4892,"mean_anomaly_deg":70.5747,"bstar":8.7387e-6,"rev_number":16199,"period_min":94.318544078204,"perigee_km":484.21754398118,"apogee_km":486.90674130527,"semimajor_km":6863.6991426432,"source":"CELESTRAK","updated_at":"2026-05-25T13:38:18.242494Z"}}}